STARLINK-32539, 62022

Orbit data source: Space-Track

STARLINK-32539, 62022 is a payload satellite owned by SpaceX/Seattle (US) in LEO that was launched on Mon, 18 Nov 2024 UTC via an FALCON 9 launch vehicle from the Air Force Western Test Range (AFWTR). Payload-class satellites include a variety of spacecraft equipped with specific instruments for various scientific and technological missions. These include communications satellites like Starlink; space stations such as the ISS; scientific satellites like the Hubble; Earth observation satellites from companies like Planet Labs, Umbra, and HawkEye 360; GPS; miniature CubeSats for education and research; and military/defense satellites.

Loading next visibility...
Identifier
62022, 2024-213Q
Orbit
LEO
Country
Flag of USUS
Related business
Manufacturer
SpaceX/Seattle
Mission
Operational Commercial Communications
Bus & Motor
STARLINK V2M, Unknown motor
Mass
730 kg wet, ~700 kg dry
Launch date (UTC)
2024-11-18 (1 year ago)
Launch vehicle
FALCON 9
Launch site
Air Force Western Test Range (AFWTR)
Object type
Payload
Rocket body
Debris
Shape & HBR
Box + 2 Pan, 17.7 m
Radar Cross Section
33.884 m², Large (>1 m²)

Expand to show TLE details & history
Last TLE update: 7 hours ago

TLE from 7 hours ago
0 STARLINK-32539
1 62022U 24213Q   25353.19006381  .00018497  00000-0  63484-3 0  9997
2 62022  53.1569 169.5240 0000355 130.3509 229.7523 15.30211965 61004
Epoch: 2025-12-19T04:33Z
TLE epoch observation values (Epoch: 2025-12-19T04:33:41.513Z)
Latitude
0.00001°
Longitude
13.06626°
Altitude
476.236 km
Speed
7.629 km/s
True Right ascension
11h 18m 05s
True Declination
0° 00' 00"
Sunlit
Object was in daylight at epoch
Visualization orbit readout
Latitude
Unknown
Longitude
Unknown
Altitude
Unknown
Speed
Unknown
Apparent Right ascension
Unknown
Apparent Declination
Unknown
Sunlit
N/A
Visualization observer readout
Local Sidereal Time
10:51:43
Azimuth
Unknown
Elevation
Unknown
Doppler factor
Unknown
Orbital elements
Apogee altitude
475.68 km
Perigee altitude
475.193 km
Semi-major axis
6,853.573 km
Eccentricity
0.00004
Inclination
53.1569°
RAAN
169.524°
Arg. of periapsis
130.3509°
True anomaly
229.7492°
Mean anomaly
229.7523°
Eccentric anomaly
229.75075°
Mean motion
3.82532 °/min
Orbital period
94.11 mins
BSTAR
0.00063484
Loading maneuver chart data...
Computing Atmospheric mass density...
Loading historical data...
Loading historical data...
Loading historical data...
Loading historical data...
Loading historical data...
Loading historical data...
Loading historical data...

Documentation

Showing up to 5 results
|